Time,TemperatureF,DewpointF,PressureIn,WindDirection,WindDirectionDegrees,WindSpeedMPH,WindSpeedGustMPH,Humidity,HourlyPrecipIn,Conditions,Clouds,dailyrainin,SoftwareType,DateUTC
2013-01-23 00:01:00,20.8,4.1,0.00,North,0,0.0,0.0,48,0.00,,,0.00,WUHU21623XXSP,2013-01-23 05:01:00,
2013-01-23 00:03:00,20.8,4.1,0.00,North,0,0.0,0.0,48,0.00,,,0.00,WUHU21623XXSP,2013-01-23 05:03:00,
2013-01-23 00:08:00,20.5,3.8,0.00,North,0,0.0,0.0,48,0.00,,,0.00,WUHU21623XXSP,2013-01-23 05:08:00,
2013-01-23 00:13:00,20.5,3.8,0.00,North,0,0.0,0.0,48,0.00,,,0.00,WUHU21623XXSP,2013-01-23 05:13:00,
2013-01-23 00:18:00,20.3,4.1,0.00,North,0,0.0,0.0,49,0.00,,,0.00,WUHU21623XXSP,2013-01-23 05:18:00,
2013-01-23 00:23:00,20.1,3.9,0.00,North,0,0.0,0.0,49,0.00,,,0.00,WUHU21623XXSP,2013-01-23 05:23:00,
2013-01-23 00:28:00,20.1,3.9,0.00,North,0,0.0,0.0,49,0.00,,,0.00,WUHU21623XXSP,2013-01-23 05:28:00,
2013-01-23 00:33:00,19.9,4.2,0.00,North,0,0.0,0.0,50,0.00,,,0.00,WUHU21623XXSP,2013-01-23 05:33:00,
2013-01-23 00:38:00,19.9,4.2,0.00,North,0,0.0,0.0,50,0.00,,,0.00,WUHU21623XXSP,2013-01-23 05:38:00,
2013-01-23 00:43:00,19.6,3.9,0.00,North,0,0.0,0.0,50,0.00,,,0.00,WUHU21623XXSP,2013-01-23 05:43:00,
2013-01-23 00:48:00,19.6,4.3,0.00,North,0,0.0,0.0,51,0.00,,,0.00,WUHU21623XXSP,2013-01-23 05:48:00,
2013-01-23 00:53:00,19.6,4.3,0.00,North,0,0.0,0.0,51,0.00,,,0.00,WUHU21623XXSP,2013-01-23 05:53:00,
2013-01-23 00:58:00,19.2,4.0,0.00,North,0,0.0,0.0,51,0.00,,,0.00,WUHU21623XXSP,2013-01-23 05:58:00,
2013-01-23 01:03:00,19.2,4.0,0.00,North,0,0.0,0.0,51,0.00,,,0.00,WUHU21623XXSP,2013-01-23 06:03:00,
2013-01-23 01:08:00,19.0,3.8,0.00,North,0,0.0,0.0,51,0.00,,,0.00,WUHU21623XXSP,2013-01-23 06:08:00,
2013-01-23 01:13:00,18.9,4.0,0.00,North,0,0.0,0.0,52,0.00,,,0.00,WUHU21623XXSP,2013-01-23 06:13:00,
2013-01-23 01:18:00,18.7,3.9,0.00,North,0,0.0,0.0,52,0.00,,,0.00,WUHU21623XXSP,2013-01-23 06:18:00,
2013-01-23 01:23:00,18.7,3.9,0.00,North,0,0.0,0.0,52,0.00,,,0.00,WUHU21623XXSP,2013-01-23 06:23:00,
2013-01-23 01:28:00,18.5,3.7,0.00,North,0,0.0,0.0,52,0.00,,,0.00,WUHU21623XXSP,2013-01-23 06:28:00,
2013-01-23 01:33:00,18.3,3.6,0.00,North,0,0.0,0.0,52,0.00,,,0.00,WUHU21623XXSP,2013-01-23 06:33:00,
2013-01-23 01:38:00,18.3,4.0,0.00,North,0,0.0,0.0,53,0.00,,,0.00,WUHU21623XXSP,2013-01-23 06:38:00,
2013-01-23 01:43:00,18.1,3.8,0.00,North,0,0.0,0.0,53,0.00,,,0.00,WUHU21623XXSP,2013-01-23 06:43:00,
2013-01-23 01:48:00,18.1,3.8,0.00,North,0,0.0,0.0,53,0.00,,,0.00,WUHU21623XXSP,2013-01-23 06:48:00,
2013-01-23 01:53:00,18.1,3.8,0.00,North,0,0.0,0.0,53,0.00,,,0.00,WUHU21623XXSP,2013-01-23 06:53:00,
2013-01-23 01:58:00,18.0,3.6,0.00,North,0,0.0,0.0,53,0.00,,,0.00,WUHU21623XXSP,2013-01-23 06:58:00,
2013-01-23 02:03:00,18.0,4.0,0.00,North,0,0.0,0.0,54,0.00,,,0.00,WUHU21623XXSP,2013-01-23 07:03:00,
2013-01-23 02:08:00,17.8,3.9,0.00,North,0,0.0,0.0,54,0.00,,,0.00,WUHU21623XXSP,2013-01-23 07:08:00,
2013-01-23 02:13:00,17.8,3.9,0.00,North,0,0.0,0.0,54,0.00,,,0.00,WUHU21623XXSP,2013-01-23 07:13:00,
2013-01-23 02:18:00,17.8,3.9,0.00,North,0,0.0,0.0,54,0.00,,,0.00,WUHU21623XXSP,2013-01-23 07:18:00,
2013-01-23 02:23:00,17.6,3.7,0.00,North,0,0.0,0.0,54,0.00,,,0.00,WUHU21623XXSP,2013-01-23 07:23:00,
2013-01-23 02:28:00,17.8,3.9,0.00,North,0,0.0,0.0,54,0.00,,,0.00,WUHU21623XXSP,2013-01-23 07:28:00,
2013-01-23 02:33:00,17.4,3.5,0.00,North,0,0.0,0.0,54,0.00,,,0.00,WUHU21623XXSP,2013-01-23 07:33:00,
2013-01-23 02:38:00,17.4,3.5,0.00,North,0,0.0,0.0,54,0.00,,,0.00,WUHU21623XXSP,2013-01-23 07:38:00,
2013-01-23 02:43:00,17.2,3.8,0.00,North,0,0.0,0.0,55,0.00,,,0.00,WUHU21623XXSP,2013-01-23 07:43:00,
2013-01-23 02:48:00,17.2,3.8,0.00,North,0,0.0,0.0,55,0.00,,,0.00,WUHU21623XXSP,2013-01-23 07:48:00,
2013-01-23 02:53:00,17.2,3.8,0.00,North,0,0.0,0.0,55,0.00,,,0.00,WUHU21623XXSP,2013-01-23 07:53:00,
2013-01-23 02:58:00,17.2,4.1,0.00,North,0,0.0,0.0,56,0.00,,,0.00,WUHU21623XXSP,2013-01-23 07:58:00,
2013-01-23 03:03:00,17.1,4.0,0.00,North,0,0.0,0.0,56,0.00,,,0.00,WUHU21623XXSP,2013-01-23 08:03:00,
2013-01-23 03:08:00,16.9,3.8,0.00,North,0,0.0,0.0,56,0.00,,,0.00,WUHU21623XXSP,2013-01-23 08:08:00,
2013-01-23 03:13:00,16.9,3.8,0.00,North,0,0.0,0.0,56,0.00,,,0.00,WUHU21623XXSP,2013-01-23 08:13:00,
2013-01-23 03:18:00,16.7,3.6,0.00,North,0,0.0,0.0,56,0.00,,,0.00,WUHU21623XXSP,2013-01-23 08:18:00,
2013-01-23 03:23:00,16.5,3.5,0.00,North,0,0.0,0.0,56,0.00,,,0.00,WUHU21623XXSP,2013-01-23 08:23:00,
2013-01-23 03:28:00,16.3,3.3,0.00,North,0,0.0,0.0,56,0.00,,,0.00,WUHU21623XXSP,2013-01-23 08:28:00,
2013-01-23 03:33:00,15.8,3.1,0.00,North,0,0.0,0.0,57,0.00,,,0.00,WUHU21623XXSP,2013-01-23 08:33:00,
2013-01-23 03:38:00,15.6,3.0,0.00,North,0,0.0,0.0,57,0.00,,,0.00,WUHU21623XXSP,2013-01-23 08:38:00,
2013-01-23 03:43:00,15.4,2.8,0.00,North,0,0.0,0.0,57,0.00,,,0.00,WUHU21623XXSP,2013-01-23 08:43:00,
2013-01-23 03:48:00,15.4,2.8,0.00,North,0,0.0,0.0,58,0.00,,,0.00,WUHU21623XXSP,2013-01-23 08:48:00,
2013-01-23 03:53:00,15.3,3.0,0.00,North,0,0.0,0.0,58,0.00,,,0.00,WUHU21623XXSP,2013-01-23 08:53:00,
2013-01-23 03:58:00,15.4,3.2,0.00,North,0,0.0,0.0,58,0.00,,,0.00,WUHU21623XXSP,2013-01-23 08:58:00,
2013-01-23 04:03:00,15.3,3.4,0.00,North,0,0.0,0.0,59,0.00,,,0.00,WUHU21623XXSP,2013-01-23 09:03:00,
2013-01-23 04:08:00,15.4,3.6,0.00,North,0,0.0,0.0,59,0.00,,,0.00,WUHU21623XXSP,2013-01-23 09:08:00,
2013-01-23 04:13:00,15.4,3.6,0.00,North,0,0.0,0.0,59,0.00,,,0.00,WUHU21623XXSP,2013-01-23 09:13:00,
2013-01-23 04:18:00,15.4,3.6,0.00,North,0,0.0,0.0,59,0.00,,,0.00,WUHU21623XXSP,2013-01-23 09:18:00,
2013-01-23 04:23:00,15.1,3.4,0.00,North,0,0.0,0.0,59,0.00,,,0.00,WUHU21623XXSP,2013-01-23 09:23:00,
2013-01-23 04:28:00,14.5,3.1,0.00,North,0,0.0,0.0,60,0.00,,,0.00,WUHU21623XXSP,2013-01-23 09:28:00,
2013-01-23 04:33:00,14.2,2.8,0.00,North,0,0.0,0.0,60,0.00,,,0.00,WUHU21623XXSP,2013-01-23 09:33:00,
2013-01-23 04:38:00,14.0,2.7,0.00,North,0,0.0,0.0,60,0.00,,,0.00,WUHU21623XXSP,2013-01-23 09:38:00,
2013-01-23 04:43:00,13.6,2.6,0.00,North,0,0.0,0.0,61,0.00,,,0.00,WUHU21623XXSP,2013-01-23 09:43:00,
2013-01-23 04:48:00,13.6,2.6,0.00,North,0,0.0,0.0,61,0.00,,,0.00,WUHU21623XXSP,2013-01-23 09:48:00,
2013-01-23 04:53:00,13.6,2.6,0.00,North,0,0.0,0.0,61,0.00,,,0.00,WUHU21623XXSP,2013-01-23 09:53:00,
2013-01-23 04:58:00,13.8,2.8,0.00,North,0,0.0,0.0,61,0.00,,,0.00,WUHU21623XXSP,2013-01-23 09:58:00,
2013-01-23 05:03:00,14.2,3.5,0.00,North,0,0.0,0.0,62,0.00,,,0.00,WUHU21623XXSP,2013-01-23 10:03:00,
2013-01-23 05:08:00,14.2,3.5,0.00,North,0,0.0,0.0,62,0.00,,,0.00,WUHU21623XXSP,2013-01-23 10:08:00,
2013-01-23 05:13:00,14.2,3.5,0.00,North,0,0.0,0.0,62,0.00,,,0.00,WUHU21623XXSP,2013-01-23 10:13:00,
2013-01-23 05:18:00,14.2,3.5,0.00,North,0,0.0,0.0,62,0.00,,,0.00,WUHU21623XXSP,2013-01-23 10:18:00,
2013-01-23 05:23:00,14.2,3.5,0.00,North,0,0.0,0.0,62,0.00,,,0.00,WUHU21623XXSP,2013-01-23 10:23:00,
2013-01-23 05:28:00,14.2,3.5,0.00,North,0,0.0,0.0,62,0.00,,,0.00,WUHU21623XXSP,2013-01-23 10:28:00,
2013-01-23 05:33:00,14.2,3.5,0.00,North,0,0.0,0.0,62,0.00,,,0.00,WUHU21623XXSP,2013-01-23 10:33:00,
2013-01-23 05:38:00,14.2,3.8,0.00,North,0,0.0,0.0,63,0.00,,,0.00,WUHU21623XXSP,2013-01-23 10:38:00,
2013-01-23 05:43:00,14.2,3.8,0.00,North,0,0.0,0.0,63,0.00,,,0.00,WUHU21623XXSP,2013-01-23 10:43:00,
2013-01-23 05:48:00,14.2,3.8,0.00,North,0,0.0,0.0,63,0.00,,,0.00,WUHU21623XXSP,2013-01-23 10:48:00,
2013-01-23 05:53:00,14.2,3.8,0.00,North,0,0.0,0.0,63,0.00,,,0.00,WUHU21623XXSP,2013-01-23 10:53:00,
2013-01-23 05:58:00,14.2,3.8,0.00,North,0,0.0,0.0,63,0.00,,,0.00,WUHU21623XXSP,2013-01-23 10:58:00,
2013-01-23 06:03:00,14.2,3.8,0.00,North,0,0.0,0.0,63,0.00,,,0.00,WUHU21623XXSP,2013-01-23 11:03:00,
2013-01-23 06:09:00,14.2,3.8,0.00,North,0,0.0,0.0,63,0.00,,,0.00,WUHU21623XXSP,2013-01-23 11:09:00,
2013-01-23 06:14:00,14.2,3.8,0.00,North,0,0.0,0.0,63,0.00,,,0.00,WUHU21623XXSP,2013-01-23 11:14:00,
2013-01-23 06:19:00,14.2,3.8,0.00,North,0,0.0,0.0,63,0.00,,,0.00,WUHU21623XXSP,2013-01-23 11:19:00,
2013-01-23 06:24:00,14.0,3.7,0.00,North,0,0.0,0.0,63,0.00,,,0.00,WUHU21623XXSP,2013-01-23 11:24:00,
2013-01-23 06:29:00,13.8,3.8,0.00,North,0,0.0,0.0,64,0.00,,,0.00,WUHU21623XXSP,2013-01-23 11:29:00,
2013-01-23 06:34:00,13.8,3.8,0.00,North,0,0.0,0.0,64,0.00,,,0.00,WUHU21623XXSP,2013-01-23 11:34:00,
2013-01-23 06:39:00,13.8,3.8,0.00,North,0,0.0,0.0,64,0.00,,,0.00,WUHU21623XXSP,2013-01-23 11:39:00,
2013-01-23 06:44:00,13.8,3.8,0.00,North,0,0.0,0.0,64,0.00,,,0.00,WUHU21623XXSP,2013-01-23 11:44:00,
2013-01-23 06:49:00,13.8,3.8,0.00,North,0,0.0,0.0,64,0.00,,,0.00,WUHU21623XXSP,2013-01-23 11:49:00,
2013-01-23 06:54:00,13.8,3.8,0.00,North,0,0.0,0.0,64,0.00,,,0.00,WUHU21623XXSP,2013-01-23 11:54:00,
2013-01-23 06:59:00,13.8,3.8,0.00,North,0,0.0,0.0,64,0.00,,,0.00,WUHU21623XXSP,2013-01-23 11:59:00,
2013-01-23 07:04:00,13.8,3.8,0.00,North,0,0.0,0.0,64,0.00,,,0.00,WUHU21623XXSP,2013-01-23 12:04:00,
2013-01-23 07:09:00,13.6,3.7,0.00,North,0,0.0,0.0,64,0.00,,,0.00,WUHU21623XXSP,2013-01-23 12:09:00,
2013-01-23 07:14:00,13.8,3.8,0.00,North,0,0.0,0.0,64,0.00,,,0.00,WUHU21623XXSP,2013-01-23 12:14:00,
2013-01-23 07:19:00,13.6,3.7,0.00,North,0,0.0,0.0,64,0.00,,,0.00,WUHU21623XXSP,2013-01-23 12:19:00,
2013-01-23 07:24:00,13.6,3.7,0.00,North,0,0.0,0.0,64,0.00,,,0.00,WUHU21623XXSP,2013-01-23 12:24:00,
2013-01-23 07:29:00,13.6,3.7,0.00,North,0,0.0,0.0,64,0.00,,,0.00,WUHU21623XXSP,2013-01-23 12:29:00,
2013-01-23 07:34:00,13.6,4.0,0.00,North,0,0.0,0.0,65,0.00,,,0.00,WUHU21623XXSP,2013-01-23 12:34:00,
2013-01-23 07:39:00,13.6,4.0,0.00,North,0,0.0,0.0,65,0.00,,,0.00,WUHU21623XXSP,2013-01-23 12:39:00,
2013-01-23 07:44:00,13.6,4.0,0.00,North,0,0.0,0.0,65,0.00,,,0.00,WUHU21623XXSP,2013-01-23 12:44:00,
2013-01-23 07:49:00,13.6,4.0,0.00,North,0,0.0,0.0,65,0.00,,,0.00,WUHU21623XXSP,2013-01-23 12:49:00,
2013-01-23 07:54:00,13.6,4.0,0.00,North,0,0.0,0.0,65,0.00,,,0.00,WUHU21623XXSP,2013-01-23 12:54:00,
2013-01-23 07:59:00,13.6,4.0,0.00,North,0,0.0,0.0,65,0.00,,,0.00,WUHU21623XXSP,2013-01-23 12:59:00,
2013-01-23 08:04:00,13.6,4.0,0.00,North,0,0.0,0.0,65,0.00,,,0.00,WUHU21623XXSP,2013-01-23 13:04:00,
2013-01-23 08:09:00,13.8,4.2,0.00,North,0,0.0,0.0,65,0.00,,,0.00,WUHU21623XXSP,2013-01-23 13:09:00,
2013-01-23 08:14:00,14.2,4.9,0.00,North,0,0.0,0.0,66,0.00,,,0.00,WUHU21623XXSP,2013-01-23 13:14:00,
2013-01-23 08:19:00,14.4,4.9,0.00,North,0,0.0,0.0,66,0.00,,,0.00,WUHU21623XXSP,2013-01-23 13:19:00,
2013-01-23 08:24:00,14.7,5.4,0.00,North,0,0.0,0.0,66,0.00,,,0.00,WUHU21623XXSP,2013-01-23 13:24:00,
2013-01-23 08:29:00,15.3,5.4,0.00,North,0,0.0,0.0,67,0.00,,,0.00,WUHU21623XXSP,2013-01-23 13:29:00,
2013-01-23 08:34:00,15.6,6.9,0.00,North,0,0.0,0.0,68,0.00,,,0.00,WUHU21623XXSP,2013-01-23 13:34:00,
2013-01-23 08:39:00,16.3,7.2,0.00,North,0,0.0,0.0,67,0.00,,,0.00,WUHU21623XXSP,2013-01-23 13:39:00,
2013-01-23 08:44:00,16.7,7.6,0.00,North,0,0.0,0.0,67,0.00,,,0.00,WUHU21623XXSP,2013-01-23 13:44:00,
2013-01-23 08:49:00,17.1,7.8,0.00,North,0,0.0,0.0,68,0.00,,,0.00,WUHU21623XXSP,2013-01-23 13:49:00,
2013-01-23 08:54:00,17.4,8.5,0.00,North,0,0.0,0.0,68,0.00,,,0.00,WUHU21623XXSP,2013-01-23 13:54:00,
2013-01-23 08:59:00,17.4,8.6,0.00,North,0,0.0,0.0,67,0.00,,,0.00,WUHU21623XXSP,2013-01-23 13:59:00,
2013-01-23 09:04:00,17.6,8.5,0.00,North,0,0.0,0.0,67,0.00,,,0.00,WUHU21623XXSP,2013-01-23 14:04:00,
2013-01-23 09:09:00,17.8,8.6,0.00,North,0,0.0,0.0,66,0.00,,,0.00,WUHU21623XXSP,2013-01-23 14:09:00,
2013-01-23 09:14:00,18.1,8.5,0.00,North,0,0.0,0.0,66,0.00,,,0.00,WUHU21623XXSP,2013-01-23 14:14:00,
2013-01-23 09:19:00,18.3,8.8,0.00,North,0,0.0,0.0,66,0.00,,,0.00,WUHU21623XXSP,2013-01-23 14:19:00,
2013-01-23 09:24:00,18.9,8.9,0.00,North,0,0.0,0.0,65,0.00,,,0.00,WUHU21623XXSP,2013-01-23 14:24:00,
2013-01-23 09:29:00,19.4,9.4,0.00,North,0,0.0,0.0,65,0.00,,,0.00,WUHU21623XXSP,2013-01-23 14:29:00,
2013-01-23 09:34:00,19.8,9.8,0.00,North,0,0.0,0.0,65,0.00,,,0.00,WUHU21623XXSP,2013-01-23 14:34:00,
2013-01-23 09:39:00,20.8,9.8,0.00,North,0,0.0,0.0,62,0.00,,,0.00,WUHU21623XXSP,2013-01-23 14:39:00,
2013-01-23 09:44:00,21.0,10.0,0.00,North,0,0.0,0.0,61,0.00,,,0.00,WUHU21623XXSP,2013-01-23 14:44:00,
2013-01-23 09:49:00,21.6,9.4,0.00,North,0,0.0,0.0,59,0.00,,,0.00,WUHU21623XXSP,2013-01-23 14:49:00,
2013-01-23 09:54:00,21.9,9.3,0.00,North,0,0.0,0.0,58,0.00,,,0.00,WUHU21623XXSP,2013-01-23 14:54:00,
2013-01-23 09:59:00,22.1,9.1,0.00,North,0,0.0,0.0,57,0.00,,,0.00,WUHU21623XXSP,2013-01-23 14:59:00,
2013-01-23 10:04:00,22.3,8.9,0.00,North,0,0.0,0.0,56,0.00,,,0.00,WUHU21623XXSP,2013-01-23 15:04:00,
2013-01-23 10:09:00,22.5,8.6,0.00,North,0,0.0,0.0,55,0.00,,,0.00,WUHU21623XXSP,2013-01-23 15:09:00,
2013-01-23 10:14:00,22.6,8.4,0.00,North,0,0.0,0.0,54,0.00,,,0.00,WUHU21623XXSP,2013-01-23 15:14:00,
2013-01-23 10:19:00,22.8,8.6,0.00,North,0,0.0,0.0,54,0.00,,,0.00,WUHU21623XXSP,2013-01-23 15:19:00,
2013-01-23 10:24:00,23.2,8.5,0.00,North,0,0.0,0.0,53,0.00,,,0.00,WUHU21623XXSP,2013-01-23 15:24:00,
2013-01-23 10:29:00,23.5,8.7,0.00,North,0,0.0,0.0,53,0.00,,,0.00,WUHU21623XXSP,2013-01-23 15:29:00,
2013-01-23 10:34:00,23.9,8.8,0.00,North,0,0.0,0.0,52,0.00,,,0.00,WUHU21623XXSP,2013-01-23 15:34:00,
2013-01-23 10:39:00,24.6,8.9,0.00,North,0,0.0,0.0,51,0.00,,,0.00,WUHU21623XXSP,2013-01-23 15:39:00,
2013-01-23 10:44:00,25.2,9.4,0.00,North,0,0.0,0.0,51,0.00,,,0.00,WUHU21623XXSP,2013-01-23 15:44:00,
2013-01-23 10:49:00,25.5,9.4,0.00,North,0,0.0,0.0,49,0.00,,,0.00,WUHU21623XXSP,2013-01-23 15:49:00,
2013-01-23 10:54:00,25.7,8.9,0.00,North,0,0.0,0.0,49,0.00,,,0.00,WUHU21623XXSP,2013-01-23 15:54:00,
2013-01-23 10:59:00,25.9,8.8,0.00,North,0,0.0,0.0,48,0.00,,,0.00,WUHU21623XXSP,2013-01-23 15:59:00,
2013-01-23 11:04:00,26.4,9.3,0.00,North,0,0.0,0.0,48,0.00,,,0.00,WUHU21623XXSP,2013-01-23 16:04:00,
2013-01-23 11:09:00,26.8,9.3,0.00,North,0,0.0,0.0,48,0.00,,,0.00,WUHU21623XXSP,2013-01-23 16:09:00,
2013-01-23 11:14:00,27.1,9.1,0.00,North,0,0.0,0.0,47,0.00,,,0.00,WUHU21623XXSP,2013-01-23 16:14:00,
2013-01-23 11:19:00,27.7,10.0,0.00,North,0,0.0,0.0,47,0.00,,,0.00,WUHU21623XXSP,2013-01-23 16:19:00,
2013-01-23 11:24:00,27.7,9.5,0.00,North,0,0.0,0.0,46,0.00,,,0.00,WUHU21623XXSP,2013-01-23 16:24:00,
2013-01-23 11:29:00,28.0,9.8,0.00,North,0,0.0,0.0,46,0.00,,,0.00,WUHU21623XXSP,2013-01-23 16:29:00,
2013-01-23 11:34:00,28.2,10.0,0.00,North,0,0.0,0.0,46,0.00,,,0.00,WUHU21623XXSP,2013-01-23 16:34:00,
2013-01-23 11:39:00,28.6,9.8,0.00,North,0,0.0,0.0,45,0.00,,,0.00,WUHU21623XXSP,2013-01-23 16:39:00,
2013-01-23 11:44:00,28.8,10.0,0.00,North,0,0.0,0.0,45,0.00,,,0.00,WUHU21623XXSP,2013-01-23 16:44:00,
2013-01-23 11:49:00,29.3,10.0,0.00,North,0,0.0,0.0,44,0.00,,,0.00,WUHU21623XXSP,2013-01-23 16:49:00,
2013-01-23 11:54:00,29.5,10.1,0.00,North,0,0.0,0.0,44,0.00,,,0.00,WUHU21623XXSP,2013-01-23 16:54:00,
2013-01-23 11:59:00,29.8,10.5,0.00,North,0,0.0,0.0,44,0.00,,,0.00,WUHU21623XXSP,2013-01-23 16:59:00,
2013-01-23 12:04:00,30.0,10.1,0.00,North,0,0.0,0.0,42,0.00,,,0.00,WUHU21623XXSP,2013-01-23 17:04:00,
2013-01-23 12:09:00,30.0,9.6,0.00,North,0,0.0,0.0,42,0.00,,,0.00,WUHU21623XXSP,2013-01-23 17:09:00,
2013-01-23 12:14:00,30.7,10.3,0.00,North,0,0.0,0.0,42,0.00,,,0.00,WUHU21623XXSP,2013-01-23 17:14:00,
2013-01-23 12:19:00,31.3,10.3,0.00,North,0,0.0,0.0,41,0.00,,,0.00,WUHU21623XXSP,2013-01-23 17:19:00,
2013-01-23 12:24:00,31.6,10.6,0.00,North,0,0.0,0.0,41,0.00,,,0.00,WUHU21623XXSP,2013-01-23 17:24:00,
2013-01-23 12:29:00,31.6,10.6,0.00,North,0,0.0,0.0,41,0.00,,,0.00,WUHU21623XXSP,2013-01-23 17:29:00,
2013-01-23 12:34:00,32.2,10.9,0.00,North,0,0.0,0.0,41,0.00,,,0.00,WUHU21623XXSP,2013-01-23 17:34:00,
2013-01-23 12:39:00,32.4,10.6,0.00,North,0,0.0,0.0,40,0.00,,,0.00,WUHU21623XXSP,2013-01-23 17:39:00,
2013-01-23 12:44:00,32.2,9.3,0.00,North,0,0.0,0.0,38,0.00,,,0.00,WUHU21623XXSP,2013-01-23 17:44:00,
2013-01-23 12:49:00,32.5,10.3,0.00,North,0,0.0,0.0,39,0.00,,,0.00,WUHU21623XXSP,2013-01-23 17:49:00,
2013-01-23 12:54:00,32.5,10.3,0.00,North,0,0.0,0.0,39,0.00,,,0.00,WUHU21623XXSP,2013-01-23 17:54:00,
2013-01-23 12:59:00,32.5,9.6,0.00,North,0,0.0,0.0,39,0.00,,,0.00,WUHU21623XXSP,2013-01-23 17:59:00,
2013-01-23 13:04:00,32.4,9.5,0.00,North,0,0.0,0.0,38,0.00,,,0.00,WUHU21623XXSP,2013-01-23 18:04:00,
2013-01-23 13:09:00,32.4,9.5,0.00,North,0,0.0,0.0,38,0.00,,,0.00,WUHU21623XXSP,2013-01-23 18:09:00,
2013-01-23 13:14:00,32.4,9.5,0.00,North,0,0.0,0.0,38,0.00,,,0.00,WUHU21623XXSP,2013-01-23 18:14:00,
2013-01-23 13:19:00,32.2,9.3,0.00,North,0,0.0,0.0,38,0.00,,,0.00,WUHU21623XXSP,2013-01-23 18:19:00,
2013-01-23 13:24:00,31.8,9.0,0.00,North,0,0.0,0.0,38,0.00,,,0.00,WUHU21623XXSP,2013-01-23 18:24:00,
2013-01-23 13:29:00,31.6,8.8,0.00,North,0,0.0,0.0,38,0.00,,,0.00,WUHU21623XXSP,2013-01-23 18:29:00,
2013-01-23 13:34:00,31.6,8.8,0.00,North,0,0.0,0.0,38,0.00,,,0.00,WUHU21623XXSP,2013-01-23 18:34:00,
2013-01-23 13:39:00,31.8,9.0,0.00,North,0,0.0,0.0,38,0.00,,,0.00,WUHU21623XXSP,2013-01-23 18:39:00,
2013-01-23 13:44:00,32.2,9.3,0.00,North,0,0.0,0.0,38,0.00,,,0.00,WUHU21623XXSP,2013-01-23 18:44:00,
2013-01-23 13:49:00,32.5,9.6,0.00,North,0,0.0,0.0,38,0.00,,,0.00,WUHU21623XXSP,2013-01-23 18:49:00,
2013-01-23 13:54:00,32.7,9.0,0.00,North,0,0.0,0.0,37,0.00,,,0.00,WUHU21623XXSP,2013-01-23 18:54:00,
2013-01-23 13:59:00,32.7,9.2,0.00,North,0,0.0,0.0,37,0.00,,,0.00,WUHU21623XXSP,2013-01-23 18:59:00,
2013-01-23 14:04:00,32.7,9.2,0.00,North,0,0.0,0.0,37,0.00,,,0.00,WUHU21623XXSP,2013-01-23 19:04:00,
2013-01-23 14:09:00,32.5,9.0,0.00,North,0,0.0,0.0,37,0.00,,,0.00,WUHU21623XXSP,2013-01-23 19:09:00,
2013-01-23 14:14:00,32.5,9.0,0.00,North,0,0.0,0.0,36,0.00,,,0.00,WUHU21623XXSP,2013-01-23 19:14:00,
2013-01-23 14:19:00,32.7,8.4,0.00,North,0,0.0,0.0,36,0.00,,,0.00,WUHU21623XXSP,2013-01-23 19:19:00,
2013-01-23 14:24:00,33.1,8.9,0.00,North,0,0.0,0.0,36,0.00,,,0.00,WUHU21623XXSP,2013-01-23 19:24:00,
2013-01-23 14:29:00,33.1,8.2,0.00,North,0,0.0,0.0,35,0.00,,,0.00,WUHU21623XXSP,2013-01-23 19:29:00,
2013-01-23 14:34:00,33.4,8.5,0.00,North,0,0.0,0.0,35,0.00,,,0.00,WUHU21623XXSP,2013-01-23 19:34:00,
2013-01-23 14:39:00,33.8,8.7,0.00,North,0,0.0,0.0,35,0.00,,,0.00,WUHU21623XXSP,2013-01-23 19:39:00,
2013-01-23 14:44:00,34.3,8.7,0.00,North,0,0.0,0.0,34,0.00,,,0.00,WUHU21623XXSP,2013-01-23 19:44:00,
2013-01-23 14:49:00,34.3,8.7,0.00,North,0,0.0,0.0,34,0.00,,,0.00,WUHU21623XXSP,2013-01-23 19:49:00,
2013-01-23 14:54:00,34.3,8.7,0.00,North,0,0.0,0.0,34,0.00,,,0.00,WUHU21623XXSP,2013-01-23 19:54:00,
2013-01-23 14:59:00,34.3,8.7,0.00,North,0,0.0,0.0,34,0.00,,,0.00,WUHU21623XXSP,2013-01-23 19:59:00,
2013-01-23 15:04:00,34.7,9.0,0.00,North,0,0.0,0.0,34,0.00,,,0.00,WUHU21623XXSP,2013-01-23 20:04:00,
2013-01-23 15:09:00,34.9,9.1,0.00,North,0,0.0,0.0,34,0.00,,,0.00,WUHU21623XXSP,2013-01-23 20:09:00,
2013-01-23 15:14:00,34.5,8.8,0.00,North,0,0.0,0.0,34,0.00,,,0.00,WUHU21623XXSP,2013-01-23 20:14:00,
2013-01-23 15:19:00,34.5,8.8,0.00,North,0,0.0,0.0,34,0.00,,,0.00,WUHU21623XXSP,2013-01-23 20:19:00,
2013-01-23 15:24:00,34.3,8.7,0.00,North,0,0.0,0.0,34,0.00,,,0.00,WUHU21623XXSP,2013-01-23 20:24:00,
2013-01-23 15:29:00,34.3,8.0,0.00,North,0,0.0,0.0,33,0.00,,,0.00,WUHU21623XXSP,2013-01-23 20:29:00,
2013-01-23 15:34:00,34.3,8.0,0.00,North,0,0.0,0.0,33,0.00,,,0.00,WUHU21623XXSP,2013-01-23 20:34:00,
2013-01-23 15:39:00,34.3,8.0,0.00,North,0,0.0,0.0,33,0.00,,,0.00,WUHU21623XXSP,2013-01-23 20:39:00,
2013-01-23 15:44:00,34.3,8.0,0.00,North,0,0.0,0.0,33,0.00,,,0.00,WUHU21623XXSP,2013-01-23 20:44:00,
2013-01-23 15:49:00,34.3,8.0,0.00,North,0,0.0,0.0,33,0.00,,,0.00,WUHU21623XXSP,2013-01-23 20:49:00,
2013-01-23 15:54:00,34.2,7.9,0.00,North,0,0.0,0.0,33,0.00,,,0.00,WUHU21623XXSP,2013-01-23 20:54:00,
2013-01-23 15:59:00,34.0,7.8,0.00,North,0,0.0,0.0,33,0.00,,,0.00,WUHU21623XXSP,2013-01-23 20:59:00,
2013-01-23 16:04:00,34.3,8.0,0.00,North,0,0.0,0.0,33,0.00,,,0.00,WUHU21623XXSP,2013-01-23 21:04:00,
2013-01-23 16:09:00,34.7,8.3,0.00,North,0,0.0,0.0,33,0.00,,,0.00,WUHU21623XXSP,2013-01-23 21:09:00,
2013-01-23 16:14:00,34.9,8.5,0.00,North,0,0.0,0.0,33,0.00,,,0.00,WUHU21623XXSP,2013-01-23 21:14:00,
2013-01-23 16:19:00,34.9,7.9,0.00,North,0,0.0,0.0,32,0.00,,,0.00,WUHU21623XXSP,2013-01-23 21:19:00,
2013-01-23 16:24:00,35.1,8.0,0.00,North,0,0.0,0.0,32,0.00,,,0.00,WUHU21623XXSP,2013-01-23 21:24:00,
2013-01-23 16:29:00,35.2,8.1,0.00,North,0,0.0,0.0,32,0.00,,,0.00,WUHU21623XXSP,2013-01-23 21:29:00,
2013-01-23 16:34:00,34.5,8.2,0.00,North,0,0.0,0.0,33,0.00,,,0.00,WUHU21623XXSP,2013-01-23 21:34:00,
2013-01-23 16:39:00,34.3,8.0,0.00,North,0,0.0,0.0,33,0.00,,,0.00,WUHU21623XXSP,2013-01-23 21:39:00,
2013-01-23 16:44:00,34.2,8.0,0.00,North,0,0.0,0.0,33,0.00,,,0.00,WUHU21623XXSP,2013-01-23 21:44:00,
2013-01-23 16:49:00,33.6,7.4,0.00,North,0,0.0,0.0,33,0.00,,,0.00,WUHU21623XXSP,2013-01-23 21:49:00,
2013-01-23 16:54:00,33.3,7.8,0.00,North,0,0.0,0.0,34,0.00,,,0.00,WUHU21623XXSP,2013-01-23 21:54:00,
2013-01-23 16:59:00,32.9,7.4,0.00,North,0,0.0,0.0,34,0.00,,,0.00,WUHU21623XXSP,2013-01-23 21:59:00,
2013-01-23 17:04:00,32.7,7.9,0.00,North,0,0.0,0.0,35,0.00,,,0.00,WUHU21623XXSP,2013-01-23 22:04:00,
2013-01-23 17:09:00,32.5,7.7,0.00,North,0,0.0,0.0,35,0.00,,,0.00,WUHU21623XXSP,2013-01-23 22:09:00,
2013-01-23 17:14:00,32.4,7.6,0.00,North,0,0.0,0.0,35,0.00,,,0.00,WUHU21623XXSP,2013-01-23 22:14:00,
2013-01-23 17:19:00,32.2,7.4,0.00,North,0,0.0,0.0,35,0.00,,,0.00,WUHU21623XXSP,2013-01-23 22:19:00,
2013-01-23 17:24:00,32.2,8.0,0.00,North,0,0.0,0.0,36,0.00,,,0.00,WUHU21623XXSP,2013-01-23 22:24:00,
2013-01-23 17:29:00,31.8,7.7,0.00,North,0,0.0,0.0,36,0.00,,,0.00,WUHU21623XXSP,2013-01-23 22:29:00,
2013-01-23 17:34:00,31.8,8.3,0.00,North,0,0.0,0.0,37,0.00,,,0.00,WUHU21623XXSP,2013-01-23 22:34:00,
2013-01-23 17:39:00,31.8,8.3,0.00,North,0,0.0,0.0,37,0.00,,,0.00,WUHU21623XXSP,2013-01-23 22:39:00,
2013-01-23 17:44:00,31.6,8.2,0.00,North,0,0.0,0.0,37,0.00,,,0.00,WUHU21623XXSP,2013-01-23 22:44:00,
2013-01-23 17:49:00,31.6,8.2,0.00,North,0,0.0,0.0,37,0.00,,,0.00,WUHU21623XXSP,2013-01-23 22:49:00,
2013-01-23 17:54:00,31.6,8.8,0.00,North,0,0.0,0.0,38,0.00,,,0.00,WUHU21623XXSP,2013-01-23 22:54:00,
2013-01-23 17:59:00,31.5,8.7,0.00,North,0,0.0,0.0,38,0.00,,,0.00,WUHU21623XXSP,2013-01-23 22:59:00,
2013-01-23 18:04:00,31.3,8.5,0.00,North,0,0.0,0.0,38,0.00,,,0.00,WUHU21623XXSP,2013-01-23 23:04:00,
2013-01-23 18:09:00,31.3,8.5,0.00,North,0,0.0,0.0,38,0.00,,,0.00,WUHU21623XXSP,2013-01-23 23:09:00,
2013-01-23 18:14:00,31.3,9.1,0.00,North,0,0.0,0.0,39,0.00,,,0.00,WUHU21623XXSP,2013-01-23 23:14:00,
2013-01-23 18:19:00,31.3,9.1,0.00,North,0,0.0,0.0,39,0.00,,,0.00,WUHU21623XXSP,2013-01-23 23:19:00,
2013-01-23 18:24:00,31.3,9.1,0.00,North,0,0.0,0.0,39,0.00,,,0.00,WUHU21623XXSP,2013-01-23 23:24:00,
2013-01-23 18:29:00,31.1,9.0,0.00,North,0,0.0,0.0,39,0.00,,,0.00,WUHU21623XXSP,2013-01-23 23:29:00,
2013-01-23 18:34:00,31.1,9.0,0.00,North,0,0.0,0.0,39,0.00,,,0.00,WUHU21623XXSP,2013-01-23 23:34:00,
2013-01-23 18:39:00,31.1,9.6,0.00,North,0,0.0,0.0,40,0.00,,,0.00,WUHU21623XXSP,2013-01-23 23:39:00,
2013-01-23 18:44:00,30.9,9.4,0.00,North,0,0.0,0.0,40,0.00,,,0.00,WUHU21623XXSP,2013-01-23 23:44:00,
2013-01-23 18:49:00,30.9,9.4,0.00,North,0,0.0,0.0,40,0.00,,,0.00,WUHU21623XXSP,2013-01-23 23:49:00,
2013-01-23 18:54:00,30.9,9.4,0.00,North,0,0.0,0.0,40,0.00,,,0.00,WUHU21623XXSP,2013-01-23 23:54:00,
2013-01-23 18:59:00,30.9,9.4,0.00,North,0,0.0,0.0,40,0.00,,,0.00,WUHU21623XXSP,2013-01-23 23:59:00,
2013-01-23 19:04:00,30.9,9.4,0.00,North,0,0.0,0.0,40,0.00,,,0.00,WUHU21623XXSP,2013-01-24 00:04:00,
2013-01-23 19:09:00,30.9,9.4,0.00,North,0,0.0,0.0,40,0.00,,,0.00,WUHU21623XXSP,2013-01-24 00:09:00,
2013-01-23 19:14:00,30.9,9.4,0.00,North,0,0.0,0.0,40,0.00,,,0.00,WUHU21623XXSP,2013-01-24 00:14:00,
2013-01-23 19:19:00,30.9,9.4,0.00,North,0,0.0,0.0,40,0.00,,,0.00,WUHU21623XXSP,2013-01-24 00:19:00,
2013-01-23 19:24:00,30.9,9.9,0.00,North,0,0.0,0.0,41,0.00,,,0.00,WUHU21623XXSP,2013-01-24 00:24:00,
2013-01-23 19:29:00,30.9,9.9,0.00,North,0,0.0,0.0,41,0.00,,,0.00,WUHU21623XXSP,2013-01-24 00:29:00,
2013-01-23 19:34:00,30.9,9.9,0.00,North,0,0.0,0.0,41,0.00,,,0.00,WUHU21623XXSP,2013-01-24 00:34:00,
2013-01-23 19:39:00,30.9,9.9,0.00,North,0,0.0,0.0,41,0.00,,,0.00,WUHU21623XXSP,2013-01-24 00:39:00,
2013-01-23 19:44:00,30.9,9.9,0.00,North,0,0.0,0.0,41,0.00,,,0.00,WUHU21623XXSP,2013-01-24 00:44:00,
2013-01-23 19:49:00,30.7,9.8,0.00,North,0,0.0,0.0,41,0.00,,,0.00,WUHU21623XXSP,2013-01-24 00:49:00,
2013-01-23 19:54:00,30.9,10.4,0.00,North,0,0.0,0.0,42,0.00,,,0.00,WUHU21623XXSP,2013-01-24 00:54:00,
2013-01-23 19:59:00,30.9,10.4,0.00,North,0,0.0,0.0,42,0.00,,,0.00,WUHU21623XXSP,2013-01-24 00:59:00,
2013-01-23 20:04:00,30.9,10.3,0.00,North,0,0.0,0.0,42,0.00,,,0.00,WUHU21623XXSP,2013-01-24 01:04:00,
2013-01-23 20:09:00,30.7,10.3,0.00,North,0,0.0,0.0,42,0.00,,,0.00,WUHU21623XXSP,2013-01-24 01:09:00,
2013-01-23 20:14:00,30.7,10.3,0.00,North,0,0.0,0.0,42,0.00,,,0.00,WUHU21623XXSP,2013-01-24 01:14:00,
2013-01-23 20:19:00,30.7,10.3,0.00,North,0,0.0,0.0,42,0.00,,,0.00,WUHU21623XXSP,2013-01-24 01:19:00,
2013-01-23 20:24:00,30.7,10.3,0.00,North,0,0.0,0.0,42,0.00,,,0.00,WUHU21623XXSP,2013-01-24 01:24:00,
2013-01-23 20:29:00,30.7,10.8,0.00,North,0,0.0,0.0,43,0.00,,,0.00,WUHU21623XXSP,2013-01-24 01:29:00,
2013-01-23 20:34:00,30.7,10.3,0.00,North,0,0.0,0.0,42,0.00,,,0.00,WUHU21623XXSP,2013-01-24 01:34:00,
2013-01-23 20:39:00,30.7,10.8,0.00,North,0,0.0,0.0,43,0.00,,,0.00,WUHU21623XXSP,2013-01-24 01:39:00,
2013-01-23 20:44:00,30.7,10.8,0.00,North,0,0.0,0.0,43,0.00,,,0.00,WUHU21623XXSP,2013-01-24 01:44:00,
2013-01-23 20:49:00,30.7,10.8,0.00,North,0,0.0,0.0,43,0.00,,,0.00,WUHU21623XXSP,2013-01-24 01:49:00,
2013-01-23 20:54:00,30.7,10.8,0.00,North,0,0.0,0.0,43,0.00,,,0.00,WUHU21623XXSP,2013-01-24 01:54:00,
2013-01-23 20:59:00,30.6,10.6,0.00,North,0,0.0,0.0,43,0.00,,,0.00,WUHU21623XXSP,2013-01-24 01:59:00,
2013-01-23 21:04:00,30.4,11.0,0.00,North,0,0.0,0.0,44,0.00,,,0.00,WUHU21623XXSP,2013-01-24 02:04:00,
2013-01-23 21:09:00,30.4,11.0,0.00,North,0,0.0,0.0,44,0.00,,,0.00,WUHU21623XXSP,2013-01-24 02:09:00,
2013-01-23 21:14:00,30.4,11.0,0.00,North,0,0.0,0.0,44,0.00,,,0.00,WUHU21623XXSP,2013-01-24 02:14:00,
2013-01-23 21:19:00,30.4,11.0,0.00,North,0,0.0,0.0,44,0.00,,,0.00,WUHU21623XXSP,2013-01-24 02:19:00,
2013-01-23 21:25:00,30.4,11.0,0.00,North,0,0.0,0.0,44,0.00,,,0.00,WUHU21623XXSP,2013-01-24 02:25:00,
2013-01-23 21:30:00,30.4,10.5,0.00,North,0,0.0,0.0,43,0.00,,,0.00,WUHU21623XXSP,2013-01-24 02:30:00,
2013-01-23 21:35:00,30.4,10.5,0.00,North,0,0.0,0.0,43,0.00,,,0.00,WUHU21623XXSP,2013-01-24 02:35:00,
2013-01-23 21:40:00,30.4,10.5,0.00,North,0,0.0,0.0,43,0.00,,,0.00,WUHU21623XXSP,2013-01-24 02:40:00,
2013-01-23 21:45:00,30.2,10.3,0.00,North,0,0.0,0.0,43,0.00,,,0.00,WUHU21623XXSP,2013-01-24 02:45:00,
2013-01-23 21:50:00,30.2,10.3,0.00,North,0,0.0,0.0,43,0.00,,,0.00,WUHU21623XXSP,2013-01-24 02:50:00,
2013-01-23 21:55:00,30.2,10.3,0.00,North,0,0.0,0.0,43,0.00,,,0.00,WUHU21623XXSP,2013-01-24 02:55:00,
2013-01-23 22:00:00,30.0,10.1,0.00,North,0,0.0,0.0,43,0.00,,,0.00,WUHU21623XXSP,2013-01-24 03:00:00,
2013-01-23 22:05:00,30.0,10.1,0.00,North,0,0.0,0.0,43,0.00,,,0.00,WUHU21623XXSP,2013-01-24 03:05:00,
2013-01-23 22:10:00,30.0,9.6,0.00,North,0,0.0,0.0,42,0.00,,,0.00,WUHU21623XXSP,2013-01-24 03:10:00,
2013-01-23 22:15:00,30.0,9.6,0.00,North,0,0.0,0.0,42,0.00,,,0.00,WUHU21623XXSP,2013-01-24 03:15:00,
2013-01-23 22:20:00,29.8,9.5,0.00,North,0,0.0,0.0,42,0.00,,,0.00,WUHU21623XXSP,2013-01-24 03:20:00,
2013-01-23 22:25:00,29.5,9.3,0.00,North,0,0.0,0.0,42,0.00,,,0.00,WUHU21623XXSP,2013-01-24 03:25:00,
2013-01-23 22:30:00,29.3,9.0,0.00,North,0,0.0,0.0,42,0.00,,,0.00,WUHU21623XXSP,2013-01-24 03:30:00,
2013-01-23 22:35:00,29.1,8.8,0.00,North,0,0.0,0.0,42,0.00,,,0.00,WUHU21623XXSP,2013-01-24 03:35:00,
2013-01-23 22:40:00,29.1,8.8,0.00,North,0,0.0,0.0,42,0.00,,,0.00,WUHU21623XXSP,2013-01-24 03:40:00,
2013-01-23 22:46:00,29.1,8.8,0.00,North,0,0.0,0.0,42,0.00,,,0.00,WUHU21623XXSP,2013-01-24 03:46:00,
2013-01-23 22:52:00,29.1,9.3,0.00,North,0,0.0,0.0,43,0.00,,,0.00,WUHU21623XXSP,2013-01-24 03:52:00,
2013-01-23 22:57:00,28.9,9.2,0.00,North,0,0.0,0.0,43,0.00,,,0.00,WUHU21623XXSP,2013-01-24 03:57:00,
2013-01-23 23:02:00,28.9,9.2,0.00,North,0,0.0,0.0,43,0.00,,,0.00,WUHU21623XXSP,2013-01-24 04:02:00,
2013-01-23 23:07:00,28.8,9.0,0.00,North,0,0.0,0.0,43,0.00,,,0.00,WUHU21623XXSP,2013-01-24 04:07:00,
2013-01-23 23:12:00,28.8,9.0,0.00,North,0,0.0,0.0,44,0.00,,,0.00,WUHU21623XXSP,2013-01-24 04:12:00,
2013-01-23 23:17:00,28.6,9.3,0.00,North,0,0.0,0.0,44,0.00,,,0.00,WUHU21623XXSP,2013-01-24 04:17:00,
2013-01-23 23:22:00,28.4,9.2,0.00,North,0,0.0,0.0,44,0.00,,,0.00,WUHU21623XXSP,2013-01-24 04:22:00,
2013-01-23 23:27:00,28.2,9.5,0.00,North,0,0.0,0.0,45,0.00,,,0.00,WUHU21623XXSP,2013-01-24 04:27:00,
2013-01-23 23:32:00,28.2,10.0,0.00,North,0,0.0,0.0,46,0.00,,,0.00,WUHU21623XXSP,2013-01-24 04:32:00,
2013-01-23 23:37:00,28.0,10.3,0.00,North,0,0.0,0.0,47,0.00,,,0.00,WUHU21623XXSP,2013-01-24 04:37:00,
2013-01-23 23:42:00,27.7,10.5,0.00,North,0,0.0,0.0,48,0.00,,,0.00,WUHU21623XXSP,2013-01-24 04:42:00,
2013-01-23 23:47:00,27.5,10.8,0.00,North,0,0.0,0.0,49,0.00,,,0.00,WUHU21623XXSP,2013-01-24 04:47:00,
2013-01-23 23:52:00,27.3,11.5,0.00,North,0,0.0,0.0,51,0.00,,,0.00,WUHU21623XXSP,2013-01-24 04:52:00,
2013-01-23 23:57:00,26.8,12.2,0.00,North,0,0.0,0.0,54,0.00,,,0.00,WUHU21623XXSP,2013-01-24 04:57:00,